User: anonymous   Login
Location: Unspecified
(0.0000°N, 0.0000°E)
Time: 19:27:25
(UTC+00:00)
Language:

AOXIANG-1 - Orbit

View from above orbital plane
View from above orbital plane
View from above satellite
View from above satellite

Ground track
Ground track

The orbit data is extracted from the following two-line orbital elements,

1 42735U 98067MQ  19077.88555587  .00089351  00000-0  38146-3 0  9997
2 42735  51.6305  29.3512 0003275 143.5768 251.4999 15.84432891104982
Epoch (UTC): 18 March 2019 21:15:12
Eccentricity: 0.0003275
inclination: 51.6305°
perigee height: 316 km
apogee height: 320 km
right ascension of ascending node: 29.3512°
argument of perigee: 143.5768°
revolutions per day: 15.84432891
mean anomaly at epoch: 251.4999°
orbit number at epoch: 10498

The dashed part of the orbit path shows where the satellite is in the earth's shadow,  

DLR